Regional Weather Roundup
Issued by NWS Cleveland, OH

Home | Current Version | Previous Version | Text Only | Print | Product List | Glossary Off
Versions: 1 2 3 4 5 6 7 8 9 10 11 12 13 14 15 16 17 18 19 20 21 22 23 24 25 26 27 28 29 30 31 32 33 34 35 36 37 38 39 40 41 42 43 44 45 46 47 48 49 50

000
ASUS41 KCLE 092302
RWRCLE
OHIO REGIONAL WEATHER ROUNDUP
NATIONAL WEATHER SERVICE CLEVELAND, OH
600 PM EST TUE FEB 09 2016

NOTE: "FAIR" INDICATES FEW OR NO CLOUDS BELOW 12,000 FEET WITH NO
SIGNIFICANT WEATHER AND/OR OBSTRUCTIONS TO VISIBILITY.

OHZ001>008-015>018-024>027-034-035-043-044-100000-
   NORTHWEST OHIO

CITY           SKY/WX    TMP DP  RH WIND       PRES   REMARKS
DEFIANCE       CLOUDY    28  17  63 W10G21    29.75R WCI  19
FINDLAY        CLOUDY    29  19  66 W18       29.71R WCI  16
TOLEDO EXPRESS CLOUDY    27  19  72 W15G25    29.70R WCI  15
TOLEDO EXEC    CLOUDY    29  20  69 W18G25    29.71R WCI  16
LIMA           LGT SNOW  25  21  85 W21       29.74R FOG     WCI  11
$$

OHZ009>014-019>023-028>033-038-089-100000-
   NORTHEAST OHIO

CITY           SKY/WX    TMP DP  RH WIND       PRES   REMARKS
CLE-HOPKINS    LGT SNOW  29  24  82 W15       29.67R WCI  18
CLE-LAKEFRONT  LGT SNOW  31  27  85 W24G30    29.64R VSB 1   WCI  17
CUY CO. ARPT   LGT SNOW  30  28  93 W16       29.63R VSB 1   WCI  19
LORAIN-ELYRIA  LGT SNOW  28  24  85 W13       29.67R VSB 3/4 WCI  17
ASHTABULA      LGT SNOW  30  26  85 W13       29.60R FOG     WCI  20
AKRON-CANTON   LGT SNOW  27  22  81 W13       29.64R WCI  16
WOOSTER        LGT SNOW  27  23  85 W12       29.66R FOG     WCI  17
MANSFIELD      FLURRIES  27  23  85 W10G18    29.66R WCI  17
YOUNGSTOWN     LGT SNOW  29  24  82 SW14      29.61R WCI  18
$$

OHZ042-051>053-060>062-070>072-077>081-100000-
  SOUTHWEST OHIO

CITY           SKY/WX    TMP DP  RH WIND       PRES   REMARKS
CINC-COVINGTON LGT SNOW  23  18  81 W13       29.85R WCI  11
CINC-LUNKEN    CLOUDY    24  18  77 W13       29.89R WCI  12
HAMILTON       LGT SNOW  24  18  77 W14       29.87R WCI  12
DAYTON         LGT SNOW  24  19  81 W16G26    29.80R WCI  11
WRIGHT-PAT AFB FLURRIES  25  19  78 W12       29.79R WCI  14
DAYTON GENERAL LGT SNOW  23  17  78 W10G20    29.80R WCI  12
WILMINGTON     CLOUDY    22  17  81 W18       29.79R WCI   7
$$

OHZ036-037-039>041-045>050-054>059-063>069-073>076-082>088-100000-
  CENTRAL AND SOUTHEAST OHIO

CITY           SKY/WX    TMP DP  RH WIND       PRES   REMARKS
COLUMBUS       LGT SNOW  24  18  77 W14G20    29.75R WCI  12
OSU AIRPORT    LGT SNOW  25  20  81 W14       29.75R WCI  13
BOLTON FIELD   LGT SNOW  23  21  93 W10       29.77R WCI  12
RICKENBACK AFB NOT AVBL
NEWARK         CLOUDY    25  20  81 MISG      29.74R HAZE
MARION         CLOUDY    27  19  72 W14       29.72R WCI  16
LANCASTER      LGT SNOW  24  19  81 SW9G20    29.77R WCI  14
ZANESVILLE     LGT SNOW  26  20  77 W9        29.74R VSB 1   WCI  17
NEW PHILLY     FLURRIES  27  22  81 W10       29.70R WCI  17
$$



USA.gov is the U.S. government's official web portal to all federal, state and local government web resources and services.